Delta Virtual Airport Information Service

Washington Dulles International Airport

ICAO: KIAD Country: United States
Latitude: 38.9474 Longitude: -77.4599
Latest Arrival : FDX6349972 (KMEM-KIAD) Latest Departure : ETD130 (KIAD-OMAA)


WX CaptureLIVE
Data provided by noaa.gov | Fetched at 12:39:01

METAR : KIAD 281652Z 14005KT 10SM SCT030 BKN055 BKN250 17/10 A2989 RMK AO2 SLP122 T01720100

TAF : KIAD 281452Z 2815/2918 13004KT P6SM FEW200 FM290200 11008KT P6SM BKN035 FM290400 11009KT P6SM OVC015 FM291100 09012G19KT 6SM -SHRA OVC010 FM291400 09015G25KT 5SM SHRA OVC008 WS020/10045KT


Runway Data for KIAD
Data provided by openaviationdata.com

Runway ID Mag Var Hdg Length Elevation Surface ILS Freq ILS Id ILS Slope
01L -10 10° 11512 ft 312 ft Concrete 111.3 IOSZ 3
01R -10 10° 11511 ft 312 ft Concrete 110.1 IIAD 3
12 -10 120° 10490 ft 312 ft Concrete 109.3 IAJU 3
19L -10 190° 11511 ft 312 ft Concrete 110.1 ISGC 3
19R -10 190° 11512 ft 312 ft Concrete 111.3 IDLX 3
30 -10 300° 10490 ft 312 ft Concrete -- -- --

Washington Dulles International Airport, United States
Use only for reference purposes



Not for navigational purposes.